Date,TemperatureHighF,TemperatureAvgF,TemperatureLowF,DewpointHighF,DewpointAvgF,DewpointLowF,HumidityHigh,HumidityAvg,HumidityLow,PressureMaxIn,PressureMinIn,WindSpeedMaxMPH,WindSpeedAvgMPH,GustSpeedMaxMPH,PrecipitationSumIn
2013-1-1,41.5,38.8,32.7,33.7,30.0,22.5,79,71,64,30.00,29.85,10,2,11,0.00
2013-1-2,35.2,29.6,26.0,22.5,18.6,17.2,72,63,52,30.20,29.96,16,2,16,0.00
2013-1-3,34.4,28.9,23.6,22.0,18.6,15.7,79,65,49,30.20,30.09,18,2,18,0.00
2013-1-4,38.6,33.4,27.8,25.0,22.8,20.2,75,65,57,30.12,30.00,17,3,17,0.00
2013-1-5,41.0,33.1,26.3,27.1,23.3,20.5,85,67,54,30.34,30.05,9,2,14,0.01
2013-1-6,49.2,38.2,27.7,35.3,30.7,25.9,95,76,52,30.19,29.97,13,1,14,0.10
2013-1-7,45.1,39.1,35.0,33.6,30.7,29.0,83,72,57,30.34,30.07,10,1,15,0.00
2013-1-13,49.0,46.0,43.6,48.7,45.5,43.1,99,98,98,30.09,29.96,7,1,7,0.02
2013-1-14,54.4,50.6,40.3,53.9,45.4,37.8,99,83,66,30.25,30.01,15,2,15,0.26
2013-1-15,40.3,39.5,37.4,38.5,35.3,30.7,95,85,72,30.31,30.19,11,2,11,0.21
2013-1-16,37.9,36.7,35.0,36.7,35.3,34.0,100,94,93,29.99,29.79,10,1,10,1.02
2013-1-17,42.2,39.2,36.6,36.7,32.8,30.5,100,78,65,30.08,29.93,17,1,17,0.00
2013-1-18,37.1,32.8,25.9,30.7,23.1,13.2,82,68,46,30.47,29.97,19,3,19,0.01
2013-1-19,49.6,38.8,29.2,34.1,28.2,17.4,81,66,50,30.40,29.91,22,4,22,0.00
2013-1-20,57.1,43.4,31.0,35.8,28.0,16.2,75,56,36,30.05,29.73,20,4,20,0.00
2013-1-21,34.0,29.3,25.1,25.9,17.3,11.8,90,61,51,30.08,29.82,13,2,13,0.00
2013-1-22,25.1,18.1,15.0,16.1,2.6,-0.6,76,50,43,30.23,29.86,20,3,23,0.00
2013-1-23,20.5,15.3,10.5,6.2,3.0,-0.3,73,58,45,30.29,30.13,16,2,16,0.00
2013-1-24,27.1,19.4,13.8,9.6,6.0,3.3,77,56,39,30.44,30.10,20,3,20,0.00
2013-1-25,21.9,17.5,13.4,15.4,9.2,3.0,88,70,50,30.45,30.05,11,1,11,0.00
2013-1-26,29.4,21.7,12.2,16.5,13.5,9.1,92,71,51,30.39,30.04,14,2,14,0.04
2013-1-27,37.2,25.9,16.7,19.8,15.4,11.1,81,65,46,30.54,30.39,13,2,13,0.00
2013-1-28,36.9,29.6,24.8,35.5,25.6,19.5,95,85,78,30.48,30.01,15,1,15,0.08
2013-1-29,51.5,42.0,34.3,46.5,39.8,33.0,96,92,82,30.12,29.99,5,0,5,0.01
2013-1-30,65.9,46.8,39.1,59.8,45.5,38.0,98,95,79,30.00,29.30,27,2,27,0.61
2013-1-31,61.3,45.8,28.9,60.0,34.2,13.4,98,65,42,29.85,29.06,30,7,33,0.71
2013-2-1,31.4,28.3,21.1,22.2,14.8,7.4,81,57,42,30.28,29.81,24,4,24,0.00
2013-2-2,29.2,22.5,16.4,13.9,9.2,5.8,70,57,47,30.32,30.08,19,3,19,0.00
2013-2-3,32.4,26.9,25.2,26.8,22.9,17.5,92,85,67,30.00,29.79,16,1,16,0.05
2013-2-4,31.0,26.7,20.9,25.0,15.8,12.0,88,63,51,30.05,29.86,20,2,20,0.01
2013-2-5,34.2,31.1,27.8,30.9,28.2,25.0,94,89,82,29.93,29.85,7,1,7,0.01
2013-2-6,40.2,31.9,25.5,29.2,25.8,21.0,95,79,56,30.33,29.89,17,2,17,0.02
2013-2-7,36.8,31.1,24.7,25.1,20.4,17.4,82,65,50,30.46,30.22,12,2,12,0.00
2013-2-8,38.0,35.9,32.6,36.6,33.1,25.2,95,90,71,30.22,29.66,18,4,18,0.37
2013-2-9,35.4,29.8,24.8,31.3,21.8,16.8,94,73,55,30.22,29.75,37,7,37,0.05
2013-2-10,34.8,33.4,31.8,26.2,20.0,16.5,79,58,48,30.34,30.27,10,2,10,0.01
2013-2-11,49.9,41.4,32.0,49.4,39.5,26.5,98,93,80,30.27,29.63,18,2,18,0.44
2013-2-12,48.4,40.7,30.3,40.0,31.7,25.5,86,71,52,29.95,29.74,20,2,20,0.01
2013-2-13,45.2,35.2,26.7,34.4,28.7,23.6,94,78,58,29.94,29.63,11,2,11,0.13
2013-2-14,45.9,37.4,30.5,36.3,32.3,28.8,100,83,58,30.00,29.69,12,1,12,0.13
2013-2-15,55.3,41.5,29.5,41.2,34.7,27.4,95,78,55,30.00,29.88,14,2,14,0.02
2013-2-16,39.6,35.2,30.5,34.5,28.7,16.9,93,78,57,29.96,29.73,19,4,19,0.05
2013-2-17,33.4,27.7,22.0,20.9,12.4,5.2,75,52,42,30.08,29.71,28,6,28,0.00
2013-2-18,37.2,28.1,19.5,19.9,12.6,6.1,66,52,39,30.31,30.07,28,3,28,0.00
2013-2-19,44.2,37.4,27.8,42.2,32.0,19.4,94,81,64,30.16,29.68,22,3,22,0.19
2013-2-20,36.2,31.1,24.4,27.0,18.4,12.1,71,59,50,30.06,29.76,21,4,21,0.00
2013-2-21,37.5,28.9,23.2,20.6,15.6,12.2,65,57,49,30.14,30.03,22,4,22,0.00
2013-2-22,35.7,29.7,24.7,31.9,21.4,16.1,90,71,65,30.37,30.21,9,2,13,0.00
2013-2-23,45.7,40.4,34.4,44.8,39.3,31.8,97,96,90,30.22,29.76,12,2,12,0.15
2013-2-24,48.9,40.7,31.9,39.7,33.1,21.9,96,76,52,30.02,29.73,24,4,24,0.00
2013-2-25,47.6,37.6,30.3,32.2,26.5,21.6,80,65,51,30.20,30.01,15,2,15,0.00
2013-2-26,44.7,37.0,28.1,38.1,31.6,24.4,95,81,68,30.22,29.68,24,4,25,0.51
2013-2-27,54.9,46.4,39.4,46.4,40.9,36.5,97,82,64,29.69,29.47,22,4,22,0.17
2013-2-28,46.2,42.0,35.8,37.6,34.0,29.4,86,74,55,29.65,29.56,16,2,16,0.01
2013-3-1,45.0,39.1,32.4,33.3,30.7,27.9,88,72,58,29.79,29.62,15,3,15,0.00
2013-3-2,41.4,34.1,32.4,27.0,24.9,23.8,76,69,56,29.80,29.70,17,2,17,0.00
2013-3-3,39.5,33.3,28.1,24.2,21.4,17.9,74,62,49,29.79,29.70,19,3,19,0.00
2013-3-4,41.4,32.4,29.0,25.3,20.7,18.2,68,62,51,29.96,29.79,20,4,20,0.00
2013-3-5,47.0,37.4,29.3,31.3,26.4,21.6,79,65,52,30.02,29.88,12,2,12,0.00
2013-3-6,40.2,37.9,34.5,36.4,33.8,28.7,90,85,79,29.90,29.66,33,9,33,0.20
2013-3-7,46.0,40.7,36.2,31.3,28.9,26.7,80,63,54,30.06,29.88,24,6,24,0.00
2013-3-8,44.0,36.6,30.4,32.9,27.9,22.0,92,71,56,30.19,30.02,24,7,29,0.04
2013-3-9,64.3,46.2,33.8,33.2,26.7,23.0,65,49,25,30.26,30.16,19,5,19,0.02
2013-3-10,57.2,43.3,31.6,41.1,33.5,24.7,92,69,44,30.33,30.23,9,2,13,0.00
2013-3-11,57.7,41.3,37.1,49.2,39.0,34.3,97,92,69,30.26,30.01,12,1,12,0.00
2013-3-12,56.9,51.1,41.8,56.0,47.8,33.3,97,89,72,30.01,29.65,18,3,18,0.92
2013-3-13,51.6,40.8,32.8,35.7,30.7,22.6,90,69,46,29.95,29.81,23,3,23,0.00
2013-3-14,44.0,36.2,29.6,22.6,19.7,16.9,67,52,38,30.00,29.91,26,5,26,0.00
2013-3-15,52.2,39.2,26.1,32.3,23.9,15.6,73,55,40,30.01,29.72,19,3,19,0.00
2013-3-16,43.6,40.4,33.8,34.2,31.8,28.5,94,72,60,29.90,29.69,14,2,14,0.12
2013-3-17,42.3,35.0,29.7,32.1,26.9,22.8,94,74,54,30.26,29.89,15,2,16,0.00
2013-3-18,39.0,34.9,31.5,36.7,26.4,16.3,100,72,52,30.34,29.84,19,4,19,0.61
2013-3-19,53.4,42.8,37.1,41.0,34.9,22.5,96,76,41,29.85,29.67,20,3,20,0.18
2013-3-20,49.6,39.8,28.7,26.8,22.6,20.3,77,52,33,29.92,29.74,18,3,20,0.00
2013-3-21,40.7,34.3,28.7,27.9,21.1,12.3,85,60,42,29.79,29.65,18,4,18,0.00
2013-3-22,43.4,34.2,26.5,25.9,20.9,14.1,70,58,47,29.93,29.78,19,4,19,0.00
2013-3-23,50.2,38.2,27.3,28.2,23.9,21.1,81,57,41,29.94,29.85,21,3,21,0.00
2013-3-24,46.1,38.1,29.8,29.1,24.6,21.4,74,59,44,29.96,29.65,12,2,14,0.00
2013-3-25,38.2,35.3,32.6,34.2,30.9,26.6,100,85,64,29.67,29.43,16,3,19,0.64
2013-3-26,54.1,42.0,34.1,37.7,33.4,29.4,94,74,40,29.90,29.61,15,3,16,0.05
2013-3-27,51.7,43.3,36.3,35.2,31.2,28.8,90,64,44,30.01,29.88,19,4,19,0.01
2013-3-28,50.4,42.8,36.0,33.3,30.4,27.9,75,62,50,30.13,29.98,18,3,18,0.00
2013-3-29,54.1,45.6,36.8,35.5,31.0,26.8,70,57,47,30.16,30.07,16,2,16,0.00
2013-3-30,59.7,47.2,36.0,34.2,30.8,28.7,76,55,33,30.17,30.06,14,2,14,0.00
2013-3-31,56.1,45.0,34.9,47.5,39.2,31.1,97,81,49,30.11,29.68,17,2,18,0.17
2013-4-1,65.1,50.1,40.3,47.1,38.5,17.2,96,67,38,29.92,29.63,23,3,23,0.00
2013-4-2,47.3,39.4,31.9,22.9,19.4,16.8,56,44,34,30.10,29.92,20,3,22,0.00
2013-4-3,50.6,39.1,28.4,24.5,19.6,15.5,70,46,32,30.30,30.10,22,3,22,0.00
2013-4-4,49.7,38.8,28.7,32.8,24.0,16.3,72,56,40,30.39,30.06,13,2,14,0.00
2013-4-5,64.5,49.9,37.6,38.8,32.9,24.2,94,58,29,30.06,29.72,18,3,18,0.13
2013-4-6,53.7,44.4,35.9,32.6,24.8,19.2,75,47,31,30.29,29.98,15,3,16,0.00
2013-4-7,63.7,49.8,38.4,46.8,39.1,29.9,81,67,49,30.28,29.97,19,3,19,0.00
2013-4-8,76.9,61.7,47.4,55.5,49.7,43.2,87,67,46,30.04,29.93,15,2,15,0.00
2013-4-9,83.5,65.9,56.6,58.3,54.2,51.5,84,68,41,29.98,29.89,16,2,16,0.00
2013-4-10,90.8,75.3,63.4,66.1,58.6,54.4,92,58,39,29.89,29.71,23,2,23,0.11
2013-4-11,78.3,62.5,49.5,64.5,58.0,46.6,96,86,59,29.89,29.77,19,2,19,0.01
2013-4-12,49.5,47.0,44.2,47.3,45.4,43.0,96,94,90,29.89,29.62,21,5,21,0.92
2013-4-13,64.3,52.2,41.3,44.8,41.9,37.6,97,71,43,29.93,29.71,15,2,15,0.00
2013-4-14,63.6,52.6,40.9,44.9,39.1,33.6,89,63,38,30.10,29.93,20,3,20,0.00
2013-4-17,74.1,62.8,53.4,58.4,54.4,49.0,92,75,50,30.24,30.06,10,2,16,0.00
2013-4-18,66.1,57.6,53.0,60.8,51.7,42.5,96,81,65,30.26,30.02,7,1,10,0.05
2013-4-19,75.5,65.5,54.5,67.3,61.6,51.8,97,88,71,30.02,29.58,28,3,28,0.60
2013-4-20,54.4,49.4,47.4,52.4,46.8,42.0,94,91,81,29.90,29.69,7,1,11,0.20
2013-4-21,54.2,42.4,36.3,36.0,27.2,23.1,73,55,41,30.58,30.28,14,2,14,0.00
2013-4-22,54.3,45.3,36.0,40.4,35.6,30.9,83,70,54,30.58,30.39,21,3,21,0.00
2013-4-23,53.9,48.2,43.0,46.2,40.7,35.7,82,76,65,30.40,30.10,11,3,14,0.00
2013-4-24,70.6,55.9,40.9,59.3,50.0,38.8,95,81,65,30.11,29.77,14,2,14,0.00
2013-4-25,64.9,54.1,43.9,56.6,37.7,32.8,88,55,34,30.25,29.84,24,3,24,0.01
2013-4-26,66.4,55.2,44.9,41.7,37.7,34.2,76,53,33,30.39,30.25,14,2,14,0.00
2013-4-27,67.5,56.8,46.8,44.1,38.0,31.2,75,50,35,30.41,30.25,10,1,10,0.00
2013-4-28,68.8,56.5,43.9,47.8,41.7,36.3,83,60,39,30.28,30.15,16,1,16,0.00
2013-4-29,56.9,54.7,52.0,55.7,52.4,44.2,97,92,66,30.17,30.07,11,1,11,0.43
2013-4-30,54.1,52.7,51.4,52.8,51.5,50.3,96,96,93,30.20,30.11,12,2,12,0.05
2013-5-1,71.2,57.1,45.1,49.8,40.7,35.8,78,56,35,30.42,30.27,9,2,14,0.00
2013-5-2,73.2,53.7,43.0,52.8,44.8,40.2,91,73,36,30.42,30.28,9,1,9,0.00
2013-5-3,66.3,55.9,47.4,47.7,43.9,40.7,94,66,44,30.39,30.30,15,2,15,0.00
2013-5-4,72.3,57.4,45.0,49.6,44.5,39.5,91,66,38,30.33,30.16,13,2,13,0.00
2013-5-5,66.4,53.5,46.0,49.1,42.7,38.3,83,68,49,30.24,30.14,13,2,13,0.00
2013-5-6,67.9,56.4,45.9,57.4,50.6,41.8,92,81,66,30.19,30.07,13,2,13,0.00
2013-5-7,69.4,60.4,53.8,62.0,57.0,52.0,96,89,75,30.10,29.98,12,2,12,0.30
2013-5-8,72.7,63.4,57.8,63.7,59.2,55.8,98,87,62,30.00,29.89,15,1,15,0.51
2013-5-9,72.4,63.1,57.4,60.5,57.9,56.1,97,84,64,29.94,29.87,12,0,12,0.13
2013-5-10,80.5,68.3,55.8,64.7,60.1,54.1,96,77,54,29.98,29.85,14,1,14,0.30
2013-5-11,79.3,67.3,62.1,68.1,63.7,60.8,98,89,64,29.90,29.66,14,1,14,0.51
2013-5-12,65.0,59.7,49.2,63.1,46.3,32.6,97,65,35,29.96,29.66,21,2,21,0.06
2013-5-13,56.9,49.3,40.2,38.7,34.6,29.7,85,58,40,30.11,29.96,16,1,16,0.00
2013-5-14,62.2,50.6,38.9,45.3,35.5,32.0,81,58,35,30.15,30.01,13,1,13,0.00
2013-5-15,72.8,61.2,50.5,63.4,54.5,43.5,91,79,60,30.06,29.67,12,1,12,0.07
2013-5-16,82.1,69.9,59.0,67.7,62.9,57.4,96,80,58,29.83,29.67,12,1,12,0.09
2013-5-17,78.8,67.7,54.6,61.2,51.8,46.5,81,58,39,30.16,29.83,10,1,10,0.00
2013-5-18,67.9,62.1,58.5,57.5,53.1,46.0,96,73,56,30.24,30.15,9,0,9,0.06
2013-5-19,63.6,60.5,58.1,62.3,59.6,57.1,98,97,95,30.22,30.10,5,0,5,0.19
2013-5-20,79.4,68.8,61.8,70.8,65.6,60.9,99,90,71,30.12,29.94,12,0,12,0.01
2013-5-21,79.6,71.6,64.5,72.0,67.8,63.4,98,88,74,29.96,29.83,12,1,12,0.00
2013-5-22,85.7,75.3,67.1,75.6,70.6,65.9,97,86,68,29.89,29.79,14,1,14,0.00
2013-5-23,81.6,72.4,66.0,71.5,69.0,63.5,97,89,67,29.86,29.72,18,1,18,0.49
2013-5-24,65.7,57.7,47.3,64.1,54.0,39.7,98,88,67,30.02,29.68,22,2,22,0.18
2013-5-25,63.1,51.6,46.0,43.0,40.1,36.8,80,66,41,30.06,29.97,21,3,21,0.01
2013-5-26,71.4,59.6,47.2,47.2,41.2,36.7,70,52,36,30.12,30.04,22,2,22,0.00
2013-5-27,65.9,60.0,57.8,49.6,48.9,48.0,73,67,53,30.17,30.13,1,0,2,0.00
2013-5-28,65.0,61.0,56.1,64.1,58.0,48.5,97,90,71,30.17,30.06,2,0,4,0.13
2013-5-29,91.0,71.1,58.9,74.2,65.2,58.0,99,84,52,30.08,30.00,14,1,14,0.00
2013-5-30,91.6,85.1,77.8,73.0,69.2,66.4,73,59,50,30.08,30.04,7,1,7,0.00
2013-5-31,90.5,79.4,68.0,72.8,69.0,65.9,95,73,48,30.11,29.97,15,1,15,0.00
2013-6-1,89.5,78.5,67.8,73.6,69.6,65.7,94,76,55,30.00,29.87,13,1,14,0.00
2013-6-2,85.5,78.6,71.6,73.8,70.2,66.3,88,76,62,29.89,29.76,17,2,17,0.00
2013-6-3,71.5,69.2,67.5,68.5,67.9,66.6,97,96,88,29.84,29.79,6,0,6,0.97
2013-6-5,78.2,67.8,56.1,57.0,50.5,43.0,76,55,37,30.17,30.04,4,0,7,0.00
2013-6-6,73.8,65.4,55.9,64.1,57.3,52.4,94,76,51,30.10,29.92,5,0,13,0.14
2013-6-7,69.6,65.6,61.3,69.3,65.0,60.7,99,98,94,29.92,29.55,13,1,15,3.31
2013-6-8,77.6,68.2,60.3,68.2,63.7,59.7,99,87,68,30.05,29.55,13,1,13,0.11
2013-6-9,79.8,71.6,63.9,67.9,62.9,58.1,90,75,57,30.17,30.04,10,0,10,0.00
2013-6-10,73.0,70.2,66.8,72.4,68.7,64.2,98,95,83,30.11,29.75,16,0,16,1.59
2013-6-11,82.7,74.5,67.5,70.8,67.6,62.3,98,80,63,29.77,29.66,17,2,17,0.02
2013-6-12,86.1,75.3,65.0,69.4,64.6,61.1,88,70,53,29.81,29.75,14,1,14,0.00
2013-6-13,83.3,71.5,64.0,73.6,65.5,58.4,98,82,67,29.80,29.37,13,1,20,0.95
2013-6-14,77.8,65.0,55.8,62.8,57.6,53.7,95,79,54,29.91,29.47,16,1,16,0.15
2013-6-15,82.7,70.7,59.6,64.0,59.7,55.8,92,70,48,30.01,29.90,12,1,12,0.00
2013-6-16,81.3,70.1,60.6,70.7,63.4,54.8,96,80,54,29.98,29.80,14,0,14,0.12
2013-6-17,87.5,73.0,65.8,73.5,67.7,64.8,97,85,59,29.91,29.82,16,1,16,0.15
2013-6-18,76.0,68.3,64.4,73.2,66.2,63.0,97,93,78,29.88,29.77,13,0,13,0.29
2013-6-19,80.2,68.9,59.8,64.2,59.3,54.4,98,74,46,30.14,29.84,11,1,11,0.02
2013-6-20,79.4,68.4,57.0,64.3,58.0,53.9,92,71,51,30.25,30.13,12,1,12,0.00
2013-6-21,83.2,69.8,57.2,65.7,56.8,49.8,86,65,46,30.29,30.21,9,0,9,0.00
2013-6-22,83.4,71.1,58.5,70.6,63.9,56.5,94,79,60,30.23,30.09,10,1,10,0.00
2013-6-23,84.1,73.6,63.8,75.1,69.0,61.7,96,86,70,30.17,30.02,6,0,10,0.01
2013-6-24,87.3,77.0,71.1,78.6,73.6,67.0,98,90,63,30.07,30.00,24,0,24,0.63
2013-6-25,93.2,80.9,71.5,77.4,73.8,67.3,98,80,53,29.96,29.82,24,1,24,0.17
2013-6-26,90.0,74.3,67.9,76.4,68.6,64.7,94,83,57,29.86,29.74,14,0,14,0.02
2013-6-27,87.5,74.5,70.9,76.3,71.0,69.0,95,89,65,29.78,29.55,13,0,13,0.02
2013-6-28,85.1,74.2,68.0,73.5,69.9,65.6,98,87,65,29.54,29.44,14,1,14,1.02
2013-6-29,85.9,75.8,67.7,72.3,68.7,66.8,98,80,60,29.67,29.45,7,0,7,0.01
2013-6-30,82.1,74.1,69.7,76.4,71.8,67.7,98,93,79,29.85,29.66,11,0,11,0.52
2013-7-1,77.8,75.2,73.6,74.6,73.6,72.3,97,95,89,29.99,29.83,9,0,10,0.18
2013-7-2,83.5,76.5,73.4,76.6,73.4,70.2,95,90,77,30.16,29.98,15,1,15,0.02
2013-7-3,86.5,77.3,72.2,78.4,73.9,70.0,97,90,75,30.21,30.13,10,1,10,0.28
2013-7-4,89.0,79.7,74.3,77.9,74.9,72.6,98,86,67,30.23,30.14,13,1,13,0.01
2013-7-5,90.1,81.5,73.3,77.3,74.6,71.9,97,80,62,30.19,30.08,11,2,16,0.00
2013-7-6,94.2,83.9,74.8,79.6,75.9,73.2,96,78,58,30.14,30.01,10,1,10,0.00
2013-7-7,94.1,82.2,71.3,80.6,74.9,69.7,96,80,55,30.06,29.92,16,1,16,0.13
2013-7-8,85.1,75.2,69.3,76.0,70.6,67.7,97,86,65,30.05,29.98,14,0,14,0.10
2013-7-9,86.2,77.8,70.6,77.1,73.0,68.8,98,86,70,30.06,29.96,10,0,10,0.20
2013-7-10,87.2,80.7,75.1,78.4,75.0,73.0,95,83,69,29.98,29.80,11,1,11,0.04
2013-7-11,86.7,78.6,74.5,74.2,72.5,67.7,94,82,63,29.87,29.78,9,0,9,0.04
2013-7-12,75.3,72.4,69.2,71.7,67.9,64.5,98,86,75,29.99,29.87,12,2,12,1.29
2013-7-13,88.0,76.9,69.3,78.2,73.2,68.7,98,89,69,30.26,29.99,10,0,12,0.03
2013-7-14,92.3,81.0,74.5,78.5,74.9,70.6,97,83,55,30.32,30.22,10,0,10,0.01
2013-7-15,96.0,88.8,79.8,80.3,76.5,73.7,84,68,56,30.25,30.11,9,1,9,0.00
2013-7-16,97.3,86.1,78.4,78.0,74.1,71.0,83,69,49,30.18,30.10,12,1,12,0.00
2013-7-17,98.1,84.8,74.1,78.0,74.0,69.3,90,72,46,30.16,30.04,7,0,7,0.00
2013-7-18,97.8,86.4,76.3,82.2,77.3,72.4,89,75,55,30.06,29.93,8,0,8,0.00
2013-7-19,97.0,87.5,79.7,83.2,79.2,73.1,96,77,56,29.97,29.80,15,1,15,0.00
2013-7-20,93.5,84.0,77.3,79.9,74.6,70.7,82,74,61,29.83,29.73,15,1,15,0.00
2013-7-21,89.8,80.1,73.6,76.8,73.1,71.1,94,80,61,29.91,29.81,5,0,5,0.01
2013-7-22,89.5,79.9,74.3,78.5,74.5,71.5,92,84,63,29.90,29.73,13,0,13,0.00
2013-7-23,86.8,77.2,72.0,77.3,73.5,69.8,98,89,69,29.73,29.56,13,0,13,1.27
2013-7-24,81.0,75.2,67.6,72.2,69.1,57.4,92,82,64,29.89,29.61,10,0,10,0.00
2013-7-25,76.2,67.5,60.4,65.1,59.2,53.8,83,75,66,30.00,29.88,11,1,11,0.00
2013-7-26,84.6,72.5,64.2,66.9,62.4,59.2,86,72,50,30.03,29.98,9,1,9,0.00
2013-7-27,84.4,74.1,64.5,71.5,67.0,62.4,97,80,58,30.02,29.90,11,1,11,0.00
2013-7-28,78.8,72.7,69.1,74.5,69.6,66.3,97,90,83,29.95,29.86,10,0,10,1.42
2013-7-29,83.6,71.7,65.5,68.2,64.0,59.1,98,80,44,30.10,29.92,10,1,11,0.55
2013-7-30,81.5,72.0,63.9,65.1,61.0,57.5,87,70,49,30.17,30.09,11,1,11,0.00
2013-7-31,80.2,72.2,61.6,69.1,64.8,59.3,96,78,61,30.13,30.00,7,0,9,0.00
2013-8-1,73.6,69.7,67.7,72.5,67.4,64.6,99,93,81,30.00,29.79,9,0,9,1.84
2013-8-2,84.5,74.7,65.4,71.2,67.7,64.5,99,81,54,29.91,29.78,11,1,14,0.00
2013-8-3,77.5,71.3,65.7,69.6,66.9,63.9,95,86,72,29.92,29.86,8,0,8,0.01
2013-8-4,80.6,71.5,64.1,64.5,61.7,57.9,96,73,51,29.97,29.83,15,1,15,0.00
2013-8-5,79.5,69.1,60.6,60.8,57.0,54.3,83,67,44,30.06,29.97,10,1,10,0.00
2013-8-6,74.5,66.9,59.2,67.3,62.1,56.5,92,85,73,30.09,30.00,14,0,14,0.01
2013-8-7,73.8,70.4,67.4,71.2,67.9,64.6,95,92,85,30.08,30.01,8,0,8,0.04
2013-8-8,84.9,76.6,69.6,77.4,72.8,68.4,98,89,74,30.02,29.96,13,1,13,0.06
2013-8-9,86.4,79.6,75.0,78.7,75.3,72.9,96,87,73,29.98,29.78,15,1,15,0.00
2013-8-10,85.8,76.2,72.1,74.4,70.6,65.4,94,84,55,30.00,29.86,6,0,9,0.00
2013-8-11,83.7,74.9,66.6,71.0,65.2,60.0,91,73,55,30.10,29.98,6,0,12,0.00
2013-8-12,88.0,76.2,69.3,76.0,70.6,67.7,96,84,58,30.00,29.89,7,0,7,0.14
2013-8-13,84.2,74.4,67.4,73.8,70.2,66.4,98,88,67,29.89,29.69,9,1,9,2.22
2013-8-14,76.9,68.9,59.8,68.4,56.1,50.2,84,64,50,30.03,29.74,17,2,17,0.00
2013-8-15,79.5,66.8,56.6,58.8,54.2,50.6,84,66,43,30.14,30.03,7,1,8,0.00
2013-8-16,79.7,62.3,55.9,64.2,56.2,53.6,93,82,47,30.18,30.10,6,0,6,0.00
2013-8-17,79.8,64.9,59.9,64.6,59.2,57.0,93,83,50,30.24,30.17,7,0,7,0.00
2013-8-18,75.7,68.5,63.5,65.2,62.3,60.1,93,81,60,30.22,30.10,7,0,7,0.05
2013-8-19,76.5,69.6,63.6,67.9,63.4,59.2,94,81,68,30.13,30.03,6,0,6,0.00
2013-8-20,88.8,71.2,63.8,74.3,67.0,62.6,98,88,54,30.12,30.04,10,0,10,0.00
2013-8-21,88.8,76.8,67.5,75.9,71.0,66.3,98,83,60,30.16,30.03,11,0,11,0.00
2013-8-22,85.3,76.2,71.3,74.3,72.2,69.3,96,88,68,30.05,29.88,13,0,13,0.62
2013-8-23,77.2,72.1,67.3,70.3,66.3,60.6,95,82,68,30.06,29.88,11,1,11,0.00
2013-8-24,82.7,68.8,61.8,62.8,58.8,55.9,83,72,46,30.25,30.06,9,1,9,0.00
2013-8-26,80.0,76.6,74.9,68.8,68.2,67.8,81,75,68,29.97,29.92,3,0,6,0.00
2013-8-27,90.0,79.0,70.9,73.7,69.7,66.3,88,74,55,29.93,29.83,6,1,11,0.00
2013-8-28,75.5,72.6,68.6,73.8,70.5,67.6,98,93,88,29.88,29.79,5,0,5,0.79
2013-8-29,82.3,74.0,69.1,73.1,70.2,66.1,98,89,69,30.00,29.82,9,0,9,0.00
2013-8-30,81.0,74.8,67.3,73.8,70.5,65.7,98,87,77,30.00,29.85,10,1,12,0.13
2013-8-31,86.3,42.7,0.0,77.7,38.7,0.0,90,40,71,29.87,29.75,9,0,13,0.00
2013-9-1,88.3,83.8,82.6,77.4,75.7,73.9,80,77,66,29.82,29.73,11,0,11,0.00
2013-9-2,83.5,82.3,73.1,76.7,76.0,66.5,95,81,80,29.76,29.69,6,0,6,0.01
2013-9-3,84.3,62.1,0.0,68.5,49.5,0.0,67,44,52,29.89,29.76,6,1,12,0.00
2013-9-4,83.3,78.7,77.2,63.6,63.3,59.2,61,59,46,30.01,29.88,10,0,10,0.01
2013-9-5,82.0,77.7,70.1,67.8,62.5,57.0,75,60,50,30.10,29.94,7,1,14,0.01
2013-9-6,75.7,72.7,62.1,57.3,53.2,45.2,62,51,43,30.22,30.10,9,1,9,0.00
2013-9-7,79.8,72.2,69.7,61.0,51.9,48.0,62,49,46,30.12,29.89,10,0,10,0.00
2013-9-8,84.0,77.0,73.5,71.3,63.8,59.7,73,64,61,30.04,29.82,11,0,11,0.00
2013-9-9,78.5,74.7,66.8,65.3,63.8,56.3,77,69,64,30.19,30.04,7,0,7,0.00
2013-9-10,87.6,78.3,71.5,76.9,70.2,63.5,90,76,68,30.16,30.04,11,1,11,0.00
2013-9-11,91.3,86.1,79.7,79.8,75.7,73.4,88,72,62,30.11,29.96,11,0,11,0.00
2013-9-12,87.3,84.0,75.9,76.5,73.5,62.7,90,71,64,29.97,29.69,11,0,11,0.00
2013-9-13,81.6,77.3,66.4,72.1,65.0,56.0,83,66,49,29.87,29.63,17,1,17,0.00
2013-9-14,72.0,66.6,59.3,57.4,53.3,45.2,74,62,57,30.13,29.86,10,1,10,0.00
2013-9-15,74.8,66.8,62.4,58.6,53.5,50.1,67,62,50,30.20,30.06,11,0,11,0.00
2013-9-16,73.3,69.2,62.2,61.6,57.9,50.9,90,67,62,30.21,30.01,9,0,9,0.00
2013-9-17,69.3,58.7,0.0,56.7,48.9,-7.7,87,71,43,30.40,30.20,9,0,9,0.00
2013-9-18,70.7,56.6,44.7,52.6,47.5,42.5,94,74,42,30.33,30.17,7,0,7,0.00
2013-9-19,74.6,61.5,49.0,59.4,54.3,47.3,96,79,52,30.18,30.05,9,0,9,0.00
2013-9-20,79.1,64.8,52.9,63.4,58.2,51.3,97,81,54,30.07,29.95,7,0,9,0.00
2013-9-21,78.3,66.2,54.1,67.8,61.1,52.4,100,85,60,29.98,29.65,17,1,17,1.42
2013-9-22,70.9,62.8,53.5,62.3,55.0,46.7,97,77,51,29.91,29.64,14,1,15,0.12
2013-9-23,69.2,56.7,46.8,52.2,47.2,42.8,88,72,51,30.04,29.90,12,1,12,0.00
2013-9-24,72.9,57.1,44.4,56.0,48.6,41.9,92,75,50,30.06,29.89,11,1,11,0.00
2013-9-25,76.2,60.1,50.5,56.8,50.5,44.7,92,72,40,29.94,29.84,9,0,9,0.00
2013-9-26,72.6,60.5,50.8,59.6,54.1,49.0,95,81,53,30.06,29.90,6,0,6,0.00
2013-9-27,71.3,62.7,57.0,58.8,56.3,53.6,94,81,59,30.23,30.06,4,0,6,0.01
2013-9-28,74.4,62.9,54.5,57.6,54.4,51.6,93,75,52,30.28,30.19,9,1,9,0.00
2013-9-29,73.2,61.5,54.2,59.2,54.7,51.3,92,80,56,30.19,30.04,4,0,7,0.00
2013-9-30,69.5,56.7,50.2,57.6,51.7,48.5,95,85,58,30.06,30.00,5,0,5,0.00
2013-10-1,81.4,65.4,53.1,66.1,58.8,51.1,95,81,55,30.01,29.91,4,0,10,0.00
2013-10-2,84.8,71.0,62.6,67.9,62.9,58.5,91,77,54,30.02,29.92,11,1,11,0.00
2013-10-3,81.8,70.5,61.3,67.8,63.0,58.8,94,78,54,30.09,30.00,7,0,7,0.00
2013-10-4,86.9,72.1,62.1,71.1,66.2,61.0,98,83,55,30.05,29.95,5,0,8,0.00
2013-10-5,85.0,73.8,64.9,72.2,67.9,63.4,97,83,61,30.05,29.97,9,0,9,0.00
2013-10-6,83.8,72.2,66.0,73.8,67.7,64.8,97,87,70,30.03,29.92,6,0,6,0.00
2013-10-7,78.3,67.0,56.3,72.7,64.3,49.6,96,91,73,30.00,29.75,12,1,18,0.38
2013-10-8,67.8,57.2,49.0,53.7,49.6,46.2,93,77,54,30.27,29.99,14,1,14,0.00
2013-10-9,62.0,57.5,52.8,52.6,49.5,45.9,82,75,68,30.32,30.19,18,2,18,0.00
2013-10-10,58.0,55.3,52.2,56.9,53.3,50.5,96,93,81,30.20,30.00,15,3,15,0.43
2013-10-11,62.2,60.0,57.9,61.3,59.2,56.9,98,97,95,30.01,29.91,15,3,15,2.76
2013-10-12,71.3,64.2,59.9,61.0,56.8,50.1,94,78,61,30.18,29.98,20,4,20,0.00
2013-10-13,70.1,60.9,55.8,58.0,53.7,50.5,93,78,58,30.32,30.17,17,3,17,0.00
2013-10-14,69.5,57.8,51.0,56.9,52.1,48.2,94,82,61,30.32,30.20,9,0,9,0.00
2013-10-15,73.3,58.8,50.1,56.5,51.1,45.8,95,78,38,30.22,30.07,9,0,9,0.00
2013-10-16,69.4,61.0,54.0,61.4,57.2,50.6,95,88,73,30.08,29.89,7,0,7,0.00
2013-10-17,71.9,65.7,61.2,65.1,62.5,59.6,97,89,77,29.90,29.69,15,1,15,0.00
2013-10-18,67.0,57.5,47.9,59.8,48.3,44.8,91,73,51,29.99,29.72,16,1,16,0.00
2013-10-19,65.2,54.5,45.1,57.0,49.8,43.2,96,85,59,29.98,29.74,10,0,10,0.13
2013-10-20,63.6,52.5,45.7,51.0,42.7,38.7,90,71,46,30.06,29.78,17,2,17,0.00
2013-10-21,66.9,53.0,41.5,50.9,44.6,39.6,95,75,46,30.14,29.95,15,1,15,0.00
2013-10-22,65.9,53.5,45.4,54.2,47.9,38.9,97,82,58,29.95,29.77,14,0,14,0.00
2013-10-23,59.2,49.7,43.2,45.2,38.5,35.6,80,66,52,29.80,29.59,11,1,11,0.00
2013-10-24,51.2,44.2,39.2,37.1,33.7,29.6,83,67,47,30.06,29.78,19,2,19,0.00
2013-10-25,53.8,43.9,36.5,39.2,34.3,30.3,82,69,53,30.25,30.05,14,1,14,0.00
2013-10-26,56.8,45.5,32.5,37.8,33.9,29.3,90,65,44,30.24,29.89,23,2,23,0.00
2013-10-27,59.0,49.0,40.8,40.0,36.5,34.0,79,63,46,30.13,29.88,13,1,13,0.00
2013-10-28,63.9,47.7,35.5,45.7,38.7,32.3,92,73,48,30.27,30.12,10,0,10,0.00
2013-10-29,61.3,50.1,42.4,48.5,41.9,35.2,91,74,59,30.36,30.26,7,1,8,0.00
2013-10-30,56.6,51.1,44.7,53.7,48.9,42.4,96,92,89,30.31,30.15,4,0,5,0.03
2013-10-31,68.1,58.5,49.3,62.1,55.6,48.1,100,90,77,30.18,29.76,15,1,15,0.04
2013-11-1,68.6,63.5,55.4,64.3,59.9,54.2,97,88,71,29.76,29.56,23,2,23,0.32
2013-11-2,69.0,57.2,49.7,55.7,49.1,42.0,100,76,51,29.79,29.60,12,1,12,0.00
2013-11-3,56.1,46.9,34.6,42.5,34.5,22.9,83,63,41,30.43,29.79,18,2,18,0.00
2013-11-4,47.8,38.9,31.1,32.3,24.9,21.2,72,58,36,30.62,30.43,14,1,14,0.00
2013-11-5,58.4,47.2,38.2,46.1,39.5,30.2,92,75,60,30.60,30.44,7,0,7,0.00
2013-11-6,65.1,54.2,44.2,54.0,48.6,41.7,93,82,60,30.46,30.03,14,1,14,0.00
2013-11-7,60.4,54.1,43.6,57.6,50.3,32.9,95,87,66,30.04,29.78,21,1,21,0.03
2013-11-8,49.2,42.4,34.8,34.7,30.2,27.6,80,62,46,30.26,29.98,19,2,19,0.01
2013-11-9,52.6,42.9,34.4,38.5,32.2,27.4,82,67,46,30.31,29.97,15,1,15,0.00
2013-11-10,60.9,48.7,37.7,41.6,35.0,30.7,85,61,42,30.12,29.87,23,2,23,0.00
2013-11-11,55.3,46.4,33.8,39.7,34.5,29.8,87,64,49,30.23,29.96,16,2,16,0.00
2013-11-12,49.3,38.3,26.7,40.2,26.6,18.5,83,63,47,30.33,29.93,19,3,19,0.01
2013-11-13,42.9,32.7,26.7,23.2,19.2,14.1,79,58,39,30.41,30.31,20,2,20,0.00
2013-11-14,56.9,41.4,27.6,28.1,22.8,17.6,79,51,26,30.32,30.19,16,1,16,0.00
2013-11-15,53.9,42.2,31.0,38.6,33.3,27.0,88,72,51,30.24,30.15,9,0,9,0.00
2013-11-16,52.8,48.0,42.7,48.2,44.5,37.3,94,88,80,30.31,30.21,6,0,6,0.01
2013-11-17,68.9,57.9,50.8,58.9,53.9,47.7,95,87,69,30.22,29.72,13,1,13,0.00
2013-11-18,67.6,60.2,53.2,60.6,44.6,31.3,97,61,31,29.79,29.62,20,2,20,0.00
2013-11-19,42.4,42.1,41.9,27.9,27.2,26.4,57,55,53,30.03,29.96,12,3,18,0.00
2013-11-21,49.6,49.1,48.7,43.0,42.5,41.7,80,78,75,30.41,30.36,0,0,1,0.00
2013-11-22,55.7,50.8,46.9,50.5,47.3,41.9,92,88,79,30.36,29.93,13,1,13,0.01
2013-11-23,52.6,42.2,30.3,48.5,29.3,12.8,86,61,46,30.09,29.94,22,4,22,0.00
2013-11-24,31.9,26.4,22.1,14.4,6.5,3.5,63,43,34,30.43,30.09,25,4,25,0.00
2013-11-25,33.8,27.6,19.3,21.6,14.9,11.2,79,59,46,30.52,30.32,19,2,19,0.00
2013-11-26,51.6,36.7,31.6,51.0,30.6,21.2,100,79,59,30.33,29.57,13,2,13,0.01
2013-11-27,59.8,41.7,30.3,59.8,38.4,19.2,100,88,63,29.88,29.39,25,4,25,0.64
2013-11-28,38.6,31.6,28.1,23.8,20.3,17.9,78,63,49,30.46,29.87,17,3,24,0.00
2013-11-29,43.0,32.1,23.8,26.5,21.9,18.9,87,67,46,30.71,30.44,12,2,13,0.00
2013-11-30,40.3,32.0,23.6,30.9,23.2,14.9,76,70,63,30.71,30.40,13,2,13,0.00
2013-12-1,46.1,37.9,28.7,35.0,31.1,25.9,91,77,61,30.34,30.00,10,1,10,0.00
2013-12-2,50.9,41.7,37.1,37.2,33.6,30.9,84,73,56,30.00,29.84,6,0,6,0.00
2013-12-3,54.7,44.2,35.8,41.9,36.6,32.0,89,75,52,29.98,29.84,6,1,6,0.00
2013-12-4,52.2,45.8,35.8,46.3,40.1,32.3,92,81,72,30.08,29.97,5,0,5,0.00
2013-12-5,58.5,53.4,49.4,57.7,52.0,46.2,97,95,86,30.07,29.89,10,1,10,0.00
2013-12-6,60.6,48.7,36.2,60.0,47.4,34.6,100,95,92,30.13,29.84,19,3,19,0.96
2013-12-7,36.5,36.1,35.3,34.9,34.3,32.7,94,93,90,30.22,30.05,13,4,13,0.12
2013-12-8,30.6,28.1,26.0,29.1,23.5,18.0,95,83,66,30.57,30.25,11,2,11,0.00
2013-12-9,36.8,34.1,30.4,36.5,32.8,29.1,100,95,92,30.25,29.97,9,1,9,0.81
2013-12-10,33.8,30.6,24.4,32.3,28.5,21.0,95,92,84,30.17,29.90,11,1,11,0.10
2013-12-11,35.2,25.9,17.9,23.5,20.1,15.7,99,79,57,30.37,30.16,15,1,15,0.14
2013-12-12,29.3,23.8,19.7,19.1,14.0,9.2,85,66,49,30.37,30.17,19,2,19,0.02
2013-12-13,37.7,29.9,20.9,23.4,16.5,10.5,77,58,46,30.26,30.15,17,3,17,0.04
2013-12-14,33.9,31.3,27.6,33.8,27.3,22.4,100,85,72,30.37,29.63,17,3,17,0.34
2013-12-15,43.2,35.3,29.5,37.1,30.3,22.3,99,83,66,29.88,29.53,19,3,19,0.30
2013-12-16,32.3,27.9,23.6,24.4,15.9,11.5,76,61,45,30.20,29.86,10,2,18,0.00
2013-12-17,34.4,28.6,24.3,30.3,23.3,14.2,90,81,56,30.18,29.91,7,2,10,0.04
2013-12-18,38.7,30.4,23.6,26.2,22.6,20.6,89,73,53,30.19,29.93,20,2,20,0.03
2013-12-19,47.9,35.3,24.4,34.3,28.2,20.8,90,76,53,30.18,30.04,12,1,14,0.00
2013-12-20,53.4,43.8,33.9,45.6,36.1,30.0,92,75,53,30.08,29.96,13,1,13,0.00
2013-12-21,66.9,56.1,45.6,58.1,50.9,43.5,95,83,67,29.98,29.87,26,2,26,0.00
2013-12-22,67.6,62.3,58.0,64.1,59.6,55.2,95,91,86,29.95,29.80,28,4,28,0.04
2013-12-23,60.2,53.3,39.6,59.6,50.5,31.9,100,90,72,30.16,29.86,17,2,17,0.69
2013-12-24,40.8,34.2,24.9,32.2,23.4,13.0,76,65,55,30.39,30.11,21,4,21,0.00
2013-12-25,32.8,26.1,20.0,20.9,13.4,9.7,76,59,44,30.52,30.37,7,2,11,0.00
2013-12-26,41.3,29.6,21.5,31.3,23.3,18.3,89,78,60,30.38,30.17,16,1,16,0.00
2013-12-27,45.6,33.6,25.9,26.1,23.4,20.6,85,68,44,30.37,30.26,14,2,14,0.00
2013-12-28,56.9,40.3,27.1,36.7,29.4,23.7,92,67,40,30.28,30.07,14,2,14,0.00
2013-12-29,46.9,41.5,38.7,46.1,38.1,30.7,100,88,71,30.07,29.42,13,1,14,1.41
2013-12-30,44.0,36.7,28.3,39.0,30.2,19.3,96,78,63,30.15,29.74,17,2,17,0.00
2013-12-31,37.5,29.3,25.3,28.4,18.3,15.0,74,63,53,30.30,30.09,17,1,17,0.00
2014-1-1,41.1,31.3,21.5,27.8,22.7,15.6,83,71,53,30.39,30.14,10,1,12,0.00
2014-1-2,33.5,29.7,20.2,28.9,25.5,17.6,92,85,71,30.15,29.58,19,3,19,0.00